STARLINK-6279, 56411

Orbit data source: Space-Track

STARLINK-6279, 56411 is a payload satellite owned by SpaceX/Seattle (US) in LEO that was launched on Thu, 04 May 2023 UTC via an FALCON 9 launch vehicle from the Air Force Eastern Test Range (AFETR). Payload-class satellites include a variety of spacecraft equipped with specific instruments for various scientific and technological missions. These include communications satellites like Starlink; space stations such as the ISS; scientific satellites like the Hubble; Earth observation satellites from companies like Planet Labs, Umbra, and HawkEye 360; GPS; miniature CubeSats for education and research; and military/defense satellites.

Loading next visibility...
Identifier
56411, 2023-061AP
Orbit
LEO
Country
Flag of USUS
Related business
Manufacturer
SpaceX/Seattle
Mission
Operational Commercial Communications
Bus & Motor
STARLINK, Unknown motor
Mass
305 kg wet, ~290 kg dry
Launch date (UTC)
2023-05-04 (3 years ago)
Launch vehicle
FALCON 9
Launch site
Air Force Eastern Test Range (AFETR)
Object type
Payload
Rocket body
Debris
Shape & HBR
Box + 1 Pan, 10.1 m
Radar Cross Section
11.087 m², Large (>1 m²)

Expand to show TLE details & history
Last TLE update: 2 days ago

TLE from 2 days ago
0 STARLINK-6279
1 56411U 23061AP  26171.16610554  .00006909  00000-0  26064-3 0  9999
2 56411  43.0037 328.5983 0002037 287.9676  72.0953 15.27543915172548
Epoch: 2026-06-20T03:59Z
TLE epoch observation values (Epoch: 2026-06-20T03:59:11.518Z)
Latitude
-0.00006°
Longitude
0.41561°
Altitude
482.504 km
Speed
7.626 km/s
True Right ascension
21h 54m 23s
True Declination
0° 00' 00"
Sunlit
Object was in full shadow at epoch
Visualization orbit readout
Latitude
Unknown
Longitude
Unknown
Altitude
Unknown
Speed
Unknown
Apparent Right ascension
Unknown
Apparent Declination
Unknown
Sunlit
N/A
Visualization observer readout
Local Sidereal Time
21:55:06
Azimuth
Unknown
Elevation
Unknown
Doppler factor
Unknown
Orbital elements
Apogee altitude
486.5 km
Perigee altitude
483.704 km
Semi-major axis
6,863.239 km
Eccentricity
0.0002
Inclination
43.0037°
RAAN
328.5983°
Arg. of periapsis
287.9676°
True anomaly
72.11751°
Mean anomaly
72.0953°
Eccentric anomaly
72.10641°
Mean motion
3.81724 °/min
Orbital period
94.31 mins
BSTAR
0.00026064
Loading maneuver chart data...
Computing Atmospheric mass density...
Loading historical data...
Loading historical data...
Loading historical data...
Loading historical data...
Loading historical data...
Loading historical data...
Loading historical data...

Documentation

Showing up to 5 results
|